Change the Weather History Date:

Wednesday, January 9, 2013

  Actual Average Record
Temperature  
Mean Temperature 22 °F -  
Max Temperature 26 °F 35 °F - ()
Min Temperature 13 °F 24 °F - ()
Degree Days  
Heating Degree Days 44    
Moisture  
Dew Point 20 °F    
Average Humidity 87    
Maximum Humidity 93    
Minimum Humidity 76    
Precipitation  
Precipitation 0.00 in 0.05 in - ()
Sea Level Pressure  
Sea Level Pressure 30.24 in    
Wind  
Wind Speed 4 mph ()    
Max Wind Speed 6 mph    
Max Gust Speed -    
Visibility 3.8 miles    
Events Snow    
T = Trace of Precipitation, MM = Missing Value Source: Averaged Metar Reports

Daily Weather History Graph

Daily Weather History Graph

Search for Another Location

Airport or City:

Trip Planner

Search our weather history database for the weather conditions in past years. The results will help you decide how hot, cold, wet, or windy it might be!

Date:

Astronomy

Jan. 09, 2013 Rise Set
Actual Time 7:19 AM CET 4:01 PM CET
Civil Twilight 6:44 AM CET 4:37 PM CET
Nautical Twilight 6:05 AM CET 5:15 PM CET
Astronomical Twilight 5:28 AM CET 5:52 PM CET
Moon 4:39 AM CET (1/9) 1:44 PM CET (1/9)
Length of Visible Light 9h 52m
Length of Day
8h 42m
Waning Crescent, 8% of the Moon is Illuminated
Jan 9
Waning Crescent
Jan 11
New
Jan 19
First Quarter
Jan 27
Full
Feb 3
Last Quarter

Hourly Weather History & Observations

Time (CET) Temp. Windchill Dew Point Humidity Pressure Visibility Wind Dir Wind Speed Gust Speed Precip Events Conditions
12:23 AM 21.2 °F 14.9 °F 17.6 °F 86% 30.27 in - SSE 4.6 mph - N/A   Unknown
1:00 AM 22 °F - 18 °F 76% 30.29 in - SE 4.5 mph - -  
5:14 AM 21.2 °F 14.9 °F 19.4 °F 93% 30.24 in 1.9 mi SSE 4.6 mph - N/A Snow Light Snow
5:15 AM 21.2 °F 14.9 °F 19.4 °F 93% 30.21 in 1.9 mi SSE 4.6 mph - N/A Snow Light Snow
5:45 AM 21.2 °F 14.9 °F 19.4 °F 93% 30.21 in 1.6 mi SE 4.6 mph - N/A Snow Light Snow
6:00 AM - - - N/A% - 1.9 mi SSE 4.6 mph - N/A   Overcast
6:15 AM 21.2 °F 13.6 °F 19.4 °F 93% 30.21 in 2.8 mi SE 5.8 mph - N/A Snow Light Snow
7:00 AM 21 °F - 19 °F 90% 30.24 in 3 mi SE 4.5 mph - - Snow Light Snow
7:15 AM 21.2 °F 13.6 °F 19.4 °F 93% 30.21 in 2.5 mi SE 5.8 mph - N/A Snow Light Snow
7:45 AM 21.2 °F 13.6 °F 19.4 °F 93% 30.21 in 2.5 mi SE 5.8 mph - N/A Snow Light Snow
8:15 AM 21.2 °F 14.9 °F 19.4 °F 93% 30.24 in 2.8 mi SE 4.6 mph - N/A Snow Light Snow
8:45 AM 21.2 °F 13.6 °F 19.4 °F 93% 30.24 in 2.8 mi SE 5.8 mph - N/A Snow Light Snow
9:00 AM - - - N/A% - 1.9 mi SE 4.6 mph - N/A   Overcast
9:15 AM 23.0 °F 15.8 °F 19.4 °F 86% 30.24 in 3.1 mi SE 5.8 mph - N/A Snow Light Snow
9:45 AM 23.0 °F 17.0 °F 19.4 °F 86% 30.24 in 3.1 mi ESE 4.6 mph - N/A Snow Light Snow
10:15 AM 23.0 °F 17.0 °F 21.2 °F 93% 30.24 in 3.7 mi SE 4.6 mph - N/A Snow Light Snow
10:45 AM 23.0 °F 15.8 °F 21.2 °F 93% 30.24 in 4.3 mi SE 5.8 mph - N/A Snow Light Snow
11:15 AM 24.8 °F 17.9 °F 21.2 °F 86% 30.24 in 5.0 mi ESE 5.8 mph - N/A   Overcast
11:45 AM 24.8 °F 19.1 °F 21.2 °F 86% 30.24 in 5.0 mi ESE 4.6 mph - N/A Snow Light Snow
12:00 PM - - - N/A% - 3.1 mi Variable 3.5 mph - N/A   Overcast
12:15 PM 24.8 °F 17.9 °F 21.2 °F 86% 30.24 in 5.0 mi SE 5.8 mph - N/A Snow Light Snow
12:45 PM 24.8 °F 19.1 °F 21.2 °F 86% 30.24 in 5.0 mi ESE 4.6 mph - N/A Snow Light Snow
1:00 PM 25 °F - 21 °F 78% 30.26 in 5 mi ESE 4.5 mph - - Snow Light Snow
1:45 PM 26.6 °F 22.6 °F 21.2 °F 80% 30.24 in 6.2 mi ESE 3.5 mph - N/A   Overcast
2:15 PM 26.6 °F - 21.2 °F 80% 30.24 in 6.2 mi East 2.3 mph - N/A   Overcast
2:45 PM 26.6 °F 22.6 °F 21.2 °F 80% 30.24 in 6.2 mi ENE 3.5 mph - N/A   Overcast
3:15 PM 26.6 °F 22.6 °F 21.2 °F 80% 30.24 in - NE 3.5 mph - N/A   Clear
3:45 PM 24.8 °F 20.5 °F 21.2 °F 86% 30.24 in 6.2 mi East 3.5 mph - N/A   Mostly Cloudy
4:15 PM 24.8 °F - 19.4 °F 80% 30.24 in 5.0 mi Calm Calm - N/A   Scattered Clouds
4:34 PM 23.0 °F - 19.4 °F 86% 30.27 in - Calm Calm - N/A   Unknown
4:45 PM 21.2 °F - 19.4 °F 93% 30.24 in 5.0 mi SE 1.2 mph - N/A   Partly Cloudy
5:00 PM - - - N/A% - - North - - N/A   Unknown
7:00 PM 13 °F - 10 °F 82% 30.27 in - East 2.2 mph - -